Regional Weather Roundup
Issued by NWS

Home | Current Version | Previous Version | Graphics & Text | Print | Product List | Glossary Off
Versions: 1 2 3 4 5 6 7 8 9 10 11 12 13 14 15 16 17 18 19 20 21 22 23 24 25 26 27 28 29 30 31 32 33 34 35 36 37 38 39 40 41 42 43 44 45 46 47 48 49 50

731
ASUS43 KTOP 081308
RWRKS

WEATHER ROUNDUP FOR KANSAS
NATIONAL WEATHER SERVICE GOODLAND KS
700 AM CST THU DEC 08 2016

NOTE:  "FAIR" INDICATES FEW OR NO CLOUDS BELOW 12,000 FEET WITH NO
SIGNIFICANT WEATHER AND/OR OBSTRUCTIONS TO VISIBILITY.

KSZ001>006-013>018-027>032-041>047-081400-
NORTHWEST KANSAS

CITY           SKY/WX    TMP DP  RH WIND       PRES   REMARKS
GOODLAND       CLOUDY    -3 -10  72 W10       30.55R WCI -20
HAYS           CLEAR      8   0  69 NW10      30.65R WCI  -6
HILL CITY      CLEAR      2  -4  76 W12       30.65R WCI -15
RUSSELL        CLEAR      7   1  76 NW9       30.63R
$$

KSZ061>065-074>080-084>089-081400-
SOUTHWEST KANSAS

CITY           SKY/WX    TMP DP  RH WIND       PRES   REMARKS
DODGE CITY     CLEAR      3  -2  79 N9        30.60R
ELKHART          N/A      9  -3  58 NW2         N/A
GARDEN CITY    CLOUDY     2  -4  76 N9        30.58R
GREAT BEND     CLEAR      9   3  77 NW9       30.65
LIBERAL        CLEAR      9   0  66 NW5       30.60R
PRATT          PTCLDY     9   3  77 NW8       30.63R
$$

KSZ066>073-081>083-090>101-081400-
SOUTHEAST KANSAS

CITY           SKY/WX    TMP DP  RH WIND       PRES   REMARKS
CHANUTE        CLEAR     16   8  71 NW10      30.61R WCI   4
COFFEYVILLE    PTCLDY    18  10  71 NW6       30.64R
HUTCHINSON     CLEAR     14   4  64 NW15      30.63R WCI  -1
MEDICINE LODGE   N/A     11   6  81 NW6       30.66R
NEWTON         CLEAR     13   5  70 NW16      30.61R WCI  -3
PARSONS        CLEAR     16   9  74 NW7       30.63R
WICHITA INTL   PTCLDY    16   6  65 N13       30.64R WCI   2
WICHITA JABRA  CLEAR     14   6  70 NW13      30.63R WCI   0
WICHITA MCCONL CLEAR     16   4  61 N10       30.63R WCI   3
WINFIELD       CLEAR     14   7  73 N8        30.66R
$$

KSZ007>012-019>026-033>040-048>060-102>105-081400-
NORTHEAST KANSAS

CITY           SKY/WX    TMP DP  RH WIND       PRES   REMARKS
CONCORDIA      CLEAR      8   3  80 W12       30.61R WCI  -7
EMPORIA        CLEAR     13   6  74 NW12      30.60R WCI  -1
LAWRENCE       CLEAR     14   7  73 W12       30.59R WCI   0
MANHATTAN      CLEAR     14   4  64 W3        30.63R
MARYSVILLE     CLEAR     12   5  73 NW15      30.59R WCI  -4
OLATHE IND     CLEAR     14   7  73 NW9       30.57R
OLATHE EXE     CLEAR     14   5  67 NW14G21   30.56R WCI  -1
SALINA         CLEAR     13   5  70 NW9       30.66R
TOPEKA BILLARD CLEAR     15   5  64 W10       30.60R WCI   2
TOPEKA FORBES  CLEAR     15   6  67 NW13      30.59R WCI   1
$$




USA.gov is the U.S. government's official web portal to all federal, state and local government web resources and services.